Regional Weather Roundup
Issued by NWS State College, PA

Home | Current Version | Previous Version | Text Only | Print | Product List | Glossary On
Versions: 1 2 3 4 5 6 7 8 9 10 11 12 13 14 15 16 17 18 19 20 21 22 23 24 25 26 27 28 29 30 31 32 33 34 35 36 37 38 39 40 41 42 43 44 45 46 47 48 49 50
000
ASUS41 KCTP 261110
RWRCTP

REGIONAL WEATHER ROUNDUP
NATIONAL WEATHER SERVICE STATE COLLEGE PA
700 AM EDT TUE JUL 26 2016

Note: "fair" indicates few or no clouds below 12,000 feet with no
significant weather and/or obstructions to visibility.

* = STATION THAT DOES NOT REPORT PRECIPITATION /E.G. RAIN...SNOW...ETC/
    THUNDER OR FOG.

PAZ002>004-007>009-013>016-020>023-029>032-261200-
WESTERN PENNSYLVANIA

CITY           SKY/WX    TMP DP  RH WIND       PRES   REMARKS
ERIE           CLEAR     72  60  66 N5        30.03R
MEADVILLE      CLEAR     64  62  93 N3        30.06R
FRANKLIN*      CLEAR     66  63  88 N6        30.07R
NEW CASTLE     FAIR      69  67  93 N3        30.04R
BEAVER COUNTY  CLEAR     70  66  88 NW3       30.09
BUTLER*        CLEAR     66  64  94 CALM      30.05S
PITTSBURGH INT CLOUDY    71  66  84 CALM      30.02R
PITTSBURGH     PTCLDY    71  68  90 CALM      30.03R FOG
INDIANA*       MOCLDY    70  70 100 CALM      30.07R FOG
LATROBE        CLEAR     68  68 100 CALM      30.03R FOG
WASHINGTON CO* CLEAR     66  64  94 CALM      30.04R
$$

PAZ004>006-010>012-017>019-024>028-033>037-041-042-045-046-049>053-261200-
CENTRAL PENNSYLVANIA

CITY           SKY/WX    TMP DP  RH WIND       PRES   REMARKS
BRADFORD       CLEAR     65  62  90 NW6       30.05S
DUBOIS         FOG       67  65  93 N7        30.04R VSB 1
CLEARFIELD     FOG       69  67  93 VRB3      30.03R VSB<1/4
JOHNSTOWN      CLEAR     69  65  86 SW3       30.07R FOG
ALTOONA        CLEAR     67  64  90 CALM      30.03R FOG
STATE COLLEGE  CLEAR     70  68  94 W6        30.00R
WILLIAMSPORT   CLOUDY    72  69  90 W3        29.95R
SELINSGROVE    CLOUDY    70  70 100 CALM      29.97S FOG
FT INDIANTOWN  FOG       68  68 100 N1        29.96R VSB<1/4
CAPITAL CITY   FOG       73  71  93 SW5       29.96R VSB 1/4
HARRISBURG     FOG       73  73 100 W5        29.95R VSB 1/4
YORK           FOG       71  71 100 CALM      29.96R VSB 1/4
$$

PAZ038>040-043-044-047-048-054-055-060>062-067>071-261200-
EASTERN PENNSYLVANIA

CITY           SKY/WX    TMP DP  RH WIND       PRES   REMARKS
SCRANTON       CLOUDY    69  68  96 SW7       29.96R FOG
MOUNT POCONO   SUNNY     65  32  29 NW7       29.99R
ALLENTOWN      CLOUDY    68  66  93 CALM      29.95R FOG
QUAKERTOWN*    CLOUDY    68  68 100 CALM      29.96R
READING          N/A     70  68  93 CALM      29.94R VSB<1/4
LANCASTER      FOG       70  70 100 NW5       29.96R VSB<1/4
COATESVILLE      N/A     72  72 100 W6        29.98R
POTTSTOWN      CLOUDY    71  70  96 VRB3      29.96R FOG
BLUE BELL      CLOUDY    70  70 100 CALM      29.93R
DOYLESTOWN     CLOUDY    70  69  97 VRB3      29.94R
WILLOW GROVE   NOT AVBL
NORTH PHILA    CLOUDY    74  71  91 W7        29.94R
PHILADELPHIA   PTSUNNY   75  70  84 W7        29.94R
$$




USA.gov is the U.S. government's official web portal to all federal, state and local government web resources and services.